Regional Weather Roundup
Issued by NWS

Home | Current Version | Previous Version | Text Only | Print | Product List | Glossary Off
Versions: 1 2 3 4 5 6 7 8 9 10 11 12 13 14 15 16 17 18 19 20 21 22 23 24 25 26 27 28 29 30 31 32 33 34 35 36 37 38 39 40 41 42 43 44 45 46 47 48 49 50

000
ASUS43 KDTX 130110
RWRMI
MICHIGAN HOURLY REGIONAL WEATHER ROUNDUP
NATIONAL WEATHER SERVICE DETROIT/PONTIAC MI
800 PM EST TUE DEC 12 2017

NOTE: "FAIR" INDICATES FEW OR NO CLOUDS BELOW 12,000 FEET WITH NO
SIGNIFICANT WEATHER AND/OR OBSTRUCTION TO VISIBILITY.

MIZ047>049-052>055-059>063-066>070-074>076-081>083-130200-
SOUTHEAST LOWER MICHIGAN

CITY           SKY/WX    TMP DP  RH WIND       PRES   REMARKS
ADRIAN         PTCLDY    15   2  56 NW7       29.93R WCI   5
ALMA           LGT SNOW  17  13  86 W7        29.91S WCI   7
ANN ARBOR      MOCLDY    14   8  77 W6        29.89S WCI   5
BAD AXE        MOCLDY    12   1  63 NW16      29.85S WCI  -5
CARO           PTCLDY    13   3  64 NW12G18   29.87S WCI  -1
DETROIT CITY   CLEAR     16   2  54 NW9       29.89R WCI   4
DETROIT        MOCLDY    18   5  57 NW12      29.91S WCI   5
FLINT          CLOUDY    14   5  67 NW8       29.89S WCI   3
GROSSE ILE     CLOUDY    17   6  61 NW10      29.90S WCI   5
HILLSDALE      CLOUDY    18   5  57 NW14      29.89S WCI   4
HOWELL         CLOUDY    15  10  77 W8        29.88S WCI   5

CITY           SKY/WX    TMP DP  RH WIND       PRES   REMARKS
JACKSON        PTCLDY    15   2  56 W8        29.90S WCI   4
LAMBERTVILLE   PTCLDY    14   3  61 CALM      29.93R
LANSING        CLOUDY    16   8  71 W10       29.91S WCI   4
LAPEER         FAIR      13   1  61 NW9       29.86S WCI   0
MASON          CLOUDY    18   6  59 W9        29.90S WCI   6
MONROE         CLOUDY    17   7  66 W6        29.91S WCI   8
MT. CLEMENS    PTCLDY    15   2  57 NW15G22   29.85S WCI  -1
PONTIAC        CLOUDY    14   3  61 NW12      29.85S WCI   0
PORT HOPE        N/A     16   7  67 NW23G33   29.81S WCI  -2
PORT HURON     CLEAR     12   0  57 NW6       29.85S WCI   3
TRI CITIES     CLOUDY    15   6  67 NW9       29.91R WCI   3
MIDLAND        CLOUDY    15   5  66 NW5       29.90S WCI   7
TROY           CLEAR     17   3  54 W9        29.90R WCI   5
SAGINAW HB     CLOUDY    14   7  73 NW7       29.90R WCI   4
$$
MIZ043>046-050>051-056>058-064>065-071>073-077>080-130200-
SOUTHWEST LOWER MICHIGAN

CITY           SKY/WX    TMP DP  RH WIND       PRES   REMARKS
BATTLE CREEK   CLOUDY    17   8  67 NW6       29.93S WCI   9
BENTON HARBOR  FLURRIES  23  11  60 NW8G18    29.97S WCI  14
BIG RAPIDS     CLOUDY    15  10  81 W7        29.89R WCI   5
COLDWATER      CLOUDY    18  11  74 NW6       29.93S WCI  10
FREMONT        CLOUDY    17  12  81 NW7       29.93S WCI   7
HOLLAND        LGT SNOW  19  15  84 N3        29.96S VSB 3/4
GRAND RAPIDS   CLOUDY    18  12  77 NW13      29.93F WCI   5
IONIA          CLOUDY    18   9  68 W9        29.91S WCI   6
KALAMAZOO      CLOUDY    17  12  80 NW9       29.94F WCI   6
LUDINGTON      CLOUDY    19   8  62 NW8       29.93F WCI   9
MARSHALL       CLOUDY    17   7  65 NW8       29.92S WCI   6
MOUNT PLEASANT CLOUDY    17   9  70 W6        29.89S WCI   9
MUSKEGON       LGT SNOW  20  12  71 N10       29.96S WCI   9
SOUTH HAVEN    CLOUDY    24  11  58 NW9G20    29.96S WCI  14
$$
MIZ016>042-130200-
NORTHERN LOWER MICHIGAN

CITY           SKY/WX    TMP DP  RH WIND       PRES   REMARKS
ALPENA         CLOUDY    11   4  73 NW8       29.86R WCI  -1
BEAVER ISLAND  CLOUDY    15   6  67 N12G18    29.92S WCI   2
BELLAIRE       CLOUDY    15   8  71 N7        29.91S WCI   6
CADILLAC       FLURRIES  13   9  85 W8        29.84S WCI   1
CHARLEVOIX     CLOUDY    16   7  66 N15G24    29.92F WCI   2
FRANKFORT      CLOUDY    20   9  60 NW8       29.92F WCI  11
GAYLORD        CLOUDY     9   1  70 VRB3      29.83S
GRAYLING       MOCLDY    11   3  70 N6        29.85S WCI   2
HARBOR SPRINGS CLOUDY    12   3  65 N3        29.90S
HOUGHTON LAKE  PTCLDY     9   1  70 NW7       29.85S WCI  -2
MANISTEE       FLURRIES  19   9  65 NW12      29.92F WCI   7
OSCODA         CLEAR      9  -3  59 NW9       29.86R WCI  -4
PELLSTON       CLOUDY    12   3  67 NW8       29.91S WCI   0
ROGERS CITY    CLOUDY    13   3  64 NW13G25   29.87S WCI  -2
TRAVERSE CITY  LGT SNOW  18  13  80 N7        29.90S VSB 1   WCI   9
$$
MIZ007>008-015-130200-
EASTERN UPPER MICHIGAN

CITY           SKY/WX    TMP DP  RH WIND       PRES   REMARKS
KINROSS        CLOUDY     0  -5  79 NE8       29.89F WCI -14
MACKINAC ISLAN CLOUDY    11   3  70 NW12G18   29.89S WCI  -3
NEWBERRY       CLOUDY     9   6  87 CALM      29.89F
S. S. MARIE    CLEAR      1  -7  68 N9        29.91R WCI -14
MUNISING         N/A     14  10  84 W7        29.91S WCI   4
$$
MIZ004>006-011>014-085-130200-
CENTRAL UPPER MICHIGAN

CITY           SKY/WX    TMP DP  RH WIND       PRES   REMARKS
MANISTIQUE     LGT SNOW  12   7  79 W5        29.92F WCI   4
ESCANABA       MOCLDY     5  -1  76 CALM      29.95F
MENOMINEE      CLOUDY     7   2  80 CALM      29.97S
SAWYER-GWINN   CLOUDY     9   3  78 W7        29.88F WCI  -3
$$
MIZ001>003-009>011-084-130200-
WESTERN UPPER MICHIGAN

CITY           SKY/WX    TMP DP  RH WIND       PRES   REMARKS
IRON MOUNTAIN  CLOUDY     8   1  73 CALM      29.89F
HOUGHTON       CLOUDY    11   5  77 CALM      29.86F
COPPER HARBOR    N/A     15   7  70 NE6       29.91F WCI   6
IRONWOOD       CLOUDY    10   4  76 CALM      29.88S
$$

ABBREVIATIONS USED IN REMARKS
   TC - TEMPERATURE IN CELSIUS
  WCI - WIND CHILL INDEX
   HX - HEAT INDEX
  VSB - VISIBILITY





USA.gov is the U.S. government's official web portal to all federal, state and local government web resources and services.